Regional Weather Roundup
Issued by NWS

Home | Current Version | Previous Version | Graphics & Text | Print | Product List | Glossary On
Versions: 1 2 3 4 5 6 7 8 9 10 11 12 13 14 15 16 17 18 19 20 21 22 23 24 25 26 27 28 29 30 31 32 33 34 35 36 37 38 39 40 41 42 43 44 45 46 47 48 49 50
000
ASUS43 KLSX 250407
RWRMO

WEATHER SUMMARY FOR MISSOURI
NATIONAL WEATHER SERVICE SPRINGFIELD MO
1100 PM CDT FRI APR 24 2015

NOTE: "FAIR" INDICATES FEW OR NO CLOUDS BELOW 12,000 FEET WITH NO
       SIGNIFICANT WEATHER AND/OR OBSTRUCTIONS TO VISIBILITY.
       CURRENT SKY AND/OR WEATHER CONDITIONS ARE NOT AVAILABLE FOR
       CHILLICOTHE AND FARMINGTON.

MOZ001>031-035>038-043-044-053-054-250500-
...NORTHERN AND WESTERN MISSOURI...

CITY           SKY/WX    TMP DP  RH WIND       PRES   REMARKS
KANSAS CTY INT MOCLDY    62  55  77 SE17      29.56F
KANSAS C DTWN  CLOUDY    63  54  72 SE9G20    29.57F
LEE`S SUMMIT   CLOUDY    61  53  75 SE9       29.59F
ST JOSEPH      LGT RAIN  59  55  87 SE9G17    29.56F
CHILLICOTHE      N/A     60  51  72 SE9       29.62F
KIRKSVILLE     CLOUDY    58  50  75 SE12      29.67F

$$
MOZ066>068-077>081-088>096-101>105-250500-
...SOUTHWEST MISSOURI...

CITY           SKY/WX    TMP DP  RH WIND       PRES   REMARKS
SPRINGFIELD    CLOUDY    57  55  93 SE20G28   29.61F
JOPLIN         MOCLDY    61  56  83 S20G26    29.57F

$$
MOZ032>034-039>042-045>050-055>058-069>072-250500-
...CENTRAL MISSOURI...

CITY           SKY/WX    TMP DP  RH WIND       PRES   REMARKS
COLUMBIA       CLOUDY    55  50  83 SE10      29.67F
JEFFERSON CITY CLOUDY    56  50  80 SE8       29.68S
ROLLA          CLOUDY    53  49  86 S16G26    29.68F
SEDALIA        PTCLDY    55  50  83 SE3       29.67R
WHITEMAN AFB   CLOUDY    58  53  82 S6        29.63R
WARRENSBURG    CLOUDY    59  52  77 SE7       29.62F
OSAGE BEACH    CLOUDY    57  50  77 SE8G16    29.65F

$$
MOZ051-052-059>065-250500-
...EAST CENTRAL MISSOURI...

CITY           SKY/WX    TMP DP  RH WIND       PRES   REMARKS
ST LOUIS INTL  CLOUDY    56  44  64 SE9       29.75F
SPIRIT OF STL  CLOUDY    55  45  68 VRB3      29.73F
ST CHARLES     CLOUDY    55  44  66 SE10      29.74F

$$
MOZ072>076-082>087-097>100-106>115-250500-
...SOUTH CENTRAL AND SOUTHEAST MISSOURI...

CITY           SKY/WX    TMP DP  RH WIND       PRES   REMARKS
CAPE GIRARDEAU CLOUDY    56  51  84 S6        29.79S
FARMINGTON     CLOUDY    54  46  76 S10       29.78F
POPLAR BLUFF   CLOUDY    55  51  86 S7        29.75F
WEST PLAINS    FOG       53  52  96 SE7       29.72F VSB 1/4

$$



USA.gov is the U.S. government's official web portal to all federal, state and local government web resources and services.